552  
NZUS99 KTBW 180417  
RWRTPA  
FLORIDA REGIONAL WEATHER ROUNDUP  
NATIONAL WEATHER SERVICE TAMPA BAY RUSKIN FL  
1100 PM EST MON FEB 17 2020  
 
NOTE: "FAIR" INDICATES FEW OR NO CLOUDS BELOW 12,000 FEET WITH NO  
SIGNIFICANT WEATHER AND/OR S TO VISIBILITY
.  
 
 
STATION/POSITION
 
 
 
FLZ042-048>051-055-056-060-061-180500-  
EXTRA STATIONS  
 
CITY SKY/WX TMP DP RH WIND PRES REMARKS
 
EVERGLADES CTY NOT AVBL  
CRYSTAL RIVER FAIR 64 63 94 CALM 30.14S  
CANAVERAL FAIR 67 66 96 E5 30.13R  
 

 
FLZ001>010-012>015-180500-  
PANHANDLE FLORIDA  
 
CITY SKY/WX TMP DP RH WIND PRES REMARKS
 
PENSACOLA FOG 63 62 97 SE9 30.07S VSB 1/4  
MILTON NAS CLOUDY 61 60 97 SE5 30.08  
CRESTVIEW CLOUDY 63 61 93 SE5 30.10S  
VALPARAISO FOG 63 63 100 E3 30.08F VSB 3/4  
MARY ESTHER CLOUDY 63 61 94 E6 30.08 FOG  
PANAMA CITY CLOUDY 64 62 93 CALM 30.09S  
TYNDALL AFB CLOUDY 65 63 94 E6 30.10S  
APALACHICOLA N/A N/A N/A N/A MISG 30.11S  
 
STATION/POSITION
 
 
29.2N 88.2W  
28.8N 86.0W  
28.5N 84.5W  
 

 
FLZ011-016>039-180500-  
NORTH FLORIDA  
 
CITY SKY/WX TMP DP RH WIND PRES REMARKS
 
MARIANNA CLOUDY 63 62 97 E5 30.10S  
TALLAHASSEE FOG 64 63 96 E6 30.13S VSB 1/2  
PERRY CLOUDY 66 65 97 E5 30.15R  
CROSS CITY CLOUDY 65 65 98 CALM 30.15R FOG  
GAINESVILLE MOCLDY 61 61 100 E5 30.18S  
MAYPORT NAS FAIR 59 58 96 N6 30.16R  
JACKSONVILLE MOCLDY 59 56 89 NE5 30.15S  
JAX NAS MOCLDY 62 58 86 CALM 30.17R  
JAX CRAIG FAIR 59 58 96 N3 30.16R  
ST AUGUSTINE FAIR 60 59 96 NW6 30.17R  
 
STATION/POSITION
 
 
KEATON BEACH  
31.4N 80.9W  
ST AUGUSTINE  
 

 
FLZ040-043>046-052-053-057-058-063-180500-  
CENTRAL FLORIDA  
 
CITY SKY/WX TMP DP RH WIND PRES REMARKS
 
OCALA FAIR 66 65 96 CALM 30.16S  
LEESBURG FAIR 69 64 84 NE5 30.15S  
SANFORD FOG 65 64 97 NE5 30.15S VSB 1/2  
ORLANDO EXEC MOCLDY 68 65 90 E8 30.15R  
ORLANDO INTL FAIR 69 65 86 NE6 30.15R  
KISSIMMEE FAIR 70 68 93 NE6 30.15R  
WINTER HAVEN FAIR 72 67 84 E7 30.14S  
BARTOW FAIR 70 64 83 CALM 30.12S  
 

 
FLZ041-047-054-059-064-180500-  
EAST CENTRAL FLORIDA  
 
CITY SKY/WX TMP DP RH WIND PRES REMARKS
 
DAYTONA BEACH MOCLDY 64 64 100 N3 30.16R  
JFK SPACE CTR FAIR 66 64 96 CALM 30.14R  
PATRICK AFB FAIR 70 68 95 E7 30.13S  
MELBOURNE FAIR 70 69 97 E5 30.13S  
VERO BEACH FAIR 68 68 100 CALM 30.14R  
FT PIERCE FAIR 70 65 84 CALM 30.14R  
STUART FAIR 72 66 83 CALM 30.15S  
 
STATION/POSITION
 
 
28.9N 78.5W  
 

 
FLZ042-048>051-055-056-060-061-180500-  
WEST CENTRAL FLORIDA  
 
CITY SKY/WX TMP DP RH WIND PRES REMARKS
 
BROOKSVILLE FAIR 68 64 87 NE3 30.14S  
TAMPA CLOUDY 72 64 76 NE5 30.13S  
MACDILL AFB FAIR 68 65 88 N5 30.11S  
ST PETERSBURG FAIR 72 67 84 NE6 30.12S  
ST PET-WHITTED FAIR 71 68 90 N3 30.10F  
SARASOTA FAIR 70 68 93 NE3 30.10R  
 
STATION/POSITION
 
 
CEDAR KEY  
28.5N 84.5W  
VENICE  
 

 
FLZ062-065-066-069-070-075>078-180500-  
SOUTHWEST FLORIDA AND KEYS  
 
CITY SKY/WX TMP DP RH WIND PRES REMARKS
 
PUNTA GORDA FAIR 67 67 100 SE3 30.14R  
FT MYERS CLOUDY 75 68 78 CALM 30.12R  
SOUTHWEST INTL CLOUDY 72 66 81 NE3 30.12S  
NAPLES FAIR 75 69 81 CALM 30.11S  
MARATHON FAIR 78 69 73 E8 30.10R  
KEY WEST NAS FAIR 78 72 81 E13 30.09S  
KEY WEST INTL FAIR 78 71 79 E13 30.10R  
 
STATION/POSITION
 
 
VENICE  
26.0N 85.6W  
SOMBRERO KEY  
 

 
FLZ067-068-071>074-180500-  
SOUTHEAST FLORIDA  
 
CITY SKY/WX TMP DP RH WIND PRES REMARKS
 
W PALM BEACH FAIR 76 68 76 SE3 30.14R  
POMPANO BEACH FAIR 76 68 76 SE7 30.13R  
FT LAUDER-EXEC FAIR 73 68 84 E3 30.13R  
FT LAUDERDALE FAIR 76 69 79 SE9 30.12R  
PEMBROKE PINES FAIR 74 68 81 E3 30.14R  
OPA LOCKA FAIR 73 69 87 E5 30.14R  
MIAMI FAIR 77 68 73 E5 30.13R  
WEST KENDALL FAIR 72 69 90 E3 30.12R  
HOMESTEAD FAIR 73 68 84 E5 30.11R  
 
STATION/POSITION
 
 
LAKE WORTH  
FOWEY ROCKS  
SETTLEMENT POINT  
 

 
 
 
CLICK HERE TO GO TO PREVIOUS BULLETINS.

The Nexlab FL Page Main Text Page